Time,TemperatureF,DewpointF,PressureIn,WindDirection,WindDirectionDegrees,WindSpeedMPH,WindSpeedGustMPH,Humidity,HourlyPrecipIn,Conditions,Clouds,dailyrainin,SoftwareType,DateUTC
2013-02-05 00:04:00,38.8,30.2,30.17,East,90,1.3,1.3,71,0.00,,,0.00,,2013-02-04 23:04:00,
2013-02-05 00:09:00,38.8,30.2,30.17,NE,45,0.8,1.3,71,0.00,,,0.00,,2013-02-04 23:09:00,
2013-02-05 00:14:00,38.7,30.0,30.17,East,90,0.8,1.7,71,0.00,,,0.00,,2013-02-04 23:14:00,
2013-02-05 00:19:00,38.5,29.8,30.17,East,90,0.0,0.0,71,0.00,,,0.00,,2013-02-04 23:19:00,
2013-02-05 00:24:00,38.5,29.8,30.17,East,90,0.4,0.4,71,0.00,,,0.00,,2013-02-04 23:24:00,
2013-02-05 00:29:00,38.3,29.7,30.17,East,90,0.0,0.0,71,0.00,,,0.00,,2013-02-04 23:29:00,
2013-02-05 00:34:00,38.1,29.5,30.17,East,90,0.0,1.3,71,0.00,,,0.00,,2013-02-04 23:34:00,
2013-02-05 00:39:00,38.3,30.0,30.15,East,90,0.4,1.3,72,0.00,,,0.00,,2013-02-04 23:39:00,
2013-02-05 00:44:00,38.3,30.0,30.15,North,0,0.4,0.8,72,0.00,,,0.00,,2013-02-04 23:44:00,
2013-02-05 00:49:00,38.5,30.6,30.17,East,90,0.8,2.6,73,0.00,,,0.00,,2013-02-04 23:49:00,
2013-02-05 00:54:00,38.3,30.6,30.17,East,90,1.3,2.2,74,0.00,,,0.00,,2013-02-04 23:54:00,
2013-02-05 00:59:00,38.5,30.7,30.15,East,90,2.2,4.0,74,0.00,,,0.00,,2013-02-04 23:59:00,
2013-02-05 01:04:00,38.3,30.4,30.15,East,90,0.4,1.3,73,0.00,,,0.00,,2013-02-05 00:04:00,
2013-02-05 01:09:00,38.1,30.2,30.15,NE,45,0.4,0.8,73,0.00,,,0.00,,2013-02-05 00:09:00,
2013-02-05 01:14:00,38.1,30.6,30.15,East,90,2.2,3.5,74,0.00,,,0.00,,2013-02-05 00:14:00,
2013-02-05 01:19:00,38.1,30.6,30.17,East,90,1.3,3.1,74,0.00,,,0.00,,2013-02-05 00:19:00,
2013-02-05 01:24:00,38.1,30.6,30.17,East,90,1.7,3.5,74,0.00,,,0.00,,2013-02-05 00:24:00,
2013-02-05 01:29:00,37.9,30.4,30.15,East,90,1.3,1.7,74,0.00,,,0.00,,2013-02-05 00:29:00,
2013-02-05 01:34:00,37.9,30.4,30.15,East,90,0.8,1.3,74,0.00,,,0.00,,2013-02-05 00:34:00,
2013-02-05 01:39:00,37.9,30.4,30.15,NE,45,0.8,1.7,74,0.00,,,0.00,,2013-02-05 00:39:00,
2013-02-05 01:44:00,37.9,30.4,30.15,NE,45,1.7,3.1,74,0.00,,,0.00,,2013-02-05 00:44:00,
2013-02-05 01:49:00,37.9,30.4,30.15,NE,45,1.3,1.7,74,0.00,,,0.00,,2013-02-05 00:49:00,
2013-02-05 01:54:00,38.1,30.2,30.15,ENE,67,0.4,0.4,73,0.00,,,0.00,,2013-02-05 00:54:00,
2013-02-05 01:59:00,38.1,30.2,30.17,East,90,0.0,0.8,73,0.00,,,0.00,,2013-02-05 00:59:00,
2013-02-05 02:04:00,38.3,30.4,30.17,East,90,0.4,0.0,73,0.00,,,0.00,,2013-02-05 01:04:00,
2013-02-05 02:09:00,38.1,29.8,30.15,East,90,0.0,0.0,72,0.00,,,0.00,,2013-02-05 01:09:00,
2013-02-05 02:14:00,38.1,29.8,30.15,East,90,0.0,0.0,72,0.00,,,0.00,,2013-02-05 01:14:00,
2013-02-05 02:19:00,38.3,30.4,30.15,East,90,0.0,0.0,73,0.00,,,0.00,,2013-02-05 01:19:00,
2013-02-05 02:24:00,38.3,30.4,30.15,East,90,0.0,0.0,73,0.00,,,0.00,,2013-02-05 01:24:00,
2013-02-05 02:29:00,38.5,30.6,30.15,NE,45,0.8,1.3,73,0.00,,,0.00,,2013-02-05 01:29:00,
2013-02-05 02:34:00,39.2,31.1,30.15,East,90,0.8,1.3,73,0.00,,,0.00,,2013-02-05 01:34:00,
2013-02-05 02:39:00,39.6,30.6,30.15,East,90,0.8,1.7,70,0.00,,,0.00,,2013-02-05 01:39:00,
2013-02-05 02:44:00,39.7,30.7,30.15,East,90,0.8,1.3,70,0.00,,,0.00,,2013-02-05 01:44:00,
2013-02-05 02:49:00,39.9,30.6,30.15,NW,315,0.0,0.0,69,0.00,,,0.00,,2013-02-05 01:49:00,
2013-02-05 02:54:00,40.1,30.4,30.15,East,90,0.8,0.8,68,0.00,,,0.00,,2013-02-05 01:54:00,
2013-02-05 02:59:00,40.1,30.4,30.15,East,90,0.8,3.1,68,0.00,,,0.00,,2013-02-05 01:59:00,
2013-02-05 03:04:00,39.7,30.0,30.15,East,90,0.4,1.7,68,0.00,,,0.00,,2013-02-05 02:04:00,
2013-02-05 03:09:00,39.7,30.0,30.15,East,90,2.6,2.6,68,0.00,,,0.00,,2013-02-05 02:09:00,
2013-02-05 03:14:00,39.2,29.8,30.15,East,90,1.3,1.7,69,0.00,,,0.00,,2013-02-05 02:14:00,
2013-02-05 03:19:00,38.7,29.7,30.15,East,90,2.2,5.3,70,0.00,,,0.00,,2013-02-05 02:19:00,
2013-02-05 03:24:00,38.5,29.5,30.15,ENE,67,2.2,2.2,70,0.00,,,0.00,,2013-02-05 02:24:00,
2013-02-05 03:29:00,38.3,29.7,30.15,East,90,1.7,1.7,71,0.00,,,0.00,,2013-02-05 02:29:00,
2013-02-05 03:34:00,38.3,29.7,30.15,NNE,22,1.3,3.1,71,0.00,,,0.00,,2013-02-05 02:34:00,
2013-02-05 03:39:00,38.1,29.5,30.15,East,90,0.0,0.0,71,0.00,,,0.00,,2013-02-05 02:39:00,
2013-02-05 03:44:00,37.9,29.3,30.15,East,90,1.3,0.0,71,0.00,,,0.00,,2013-02-05 02:44:00,
2013-02-05 03:49:00,37.8,29.1,30.15,East,90,0.4,0.0,71,0.00,,,0.00,,2013-02-05 02:49:00,
2013-02-05 03:54:00,37.8,29.1,30.15,East,90,0.0,0.8,71,0.00,,,0.00,,2013-02-05 02:54:00,
2013-02-05 03:59:00,37.9,29.7,30.15,East,90,1.3,0.0,72,0.00,,,0.00,,2013-02-05 02:59:00,
2013-02-05 04:04:00,38.5,29.8,30.15,East,90,0.4,0.8,71,0.00,,,0.00,,2013-02-05 03:04:00,
2013-02-05 04:09:00,38.8,30.2,30.12,East,90,0.4,0.8,71,0.00,,,0.00,,2013-02-05 03:09:00,
2013-02-05 04:14:00,38.8,29.8,30.12,East,90,0.4,0.8,70,0.00,,,0.00,,2013-02-05 03:14:00,
2013-02-05 04:19:00,39.2,29.8,30.12,East,90,1.7,1.7,69,0.00,,,0.00,,2013-02-05 03:19:00,
2013-02-05 04:29:00,39.6,29.5,30.12,East,90,1.3,1.3,67,0.00,,,0.00,,2013-02-05 03:29:00,
2013-02-05 04:34:00,39.7,29.7,30.12,East,90,1.3,1.7,67,0.00,,,0.00,,2013-02-05 03:34:00,
2013-02-05 04:39:00,39.7,29.7,30.12,South,180,0.4,1.3,67,0.00,,,0.00,,2013-02-05 03:39:00,
2013-02-05 04:44:00,39.9,29.3,30.12,East,90,0.8,1.7,66,0.00,,,0.00,,2013-02-05 03:44:00,
2013-02-05 04:49:00,40.1,29.5,30.12,NE,45,0.8,1.7,66,0.00,,,0.00,,2013-02-05 03:49:00,
2013-02-05 04:54:00,40.1,28.8,30.12,NE,45,0.8,1.3,64,0.00,,,0.00,,2013-02-05 03:54:00,
2013-02-05 04:59:00,40.3,28.9,30.12,East,90,0.4,2.6,64,0.00,,,0.00,,2013-02-05 03:59:00,
2013-02-05 05:04:00,40.3,28.9,30.12,North,0,2.2,0.0,64,0.00,,,0.00,,2013-02-05 04:04:00,
2013-02-05 05:09:00,40.3,28.6,30.12,East,90,0.4,1.3,63,0.00,,,0.00,,2013-02-05 04:09:00,
2013-02-05 05:14:00,40.5,28.8,30.12,East,90,0.8,0.8,63,0.00,,,0.00,,2013-02-05 04:14:00,
2013-02-05 05:19:00,40.5,28.8,30.12,East,90,0.4,2.2,63,0.00,,,0.00,,2013-02-05 04:19:00,
2013-02-05 05:24:00,40.6,28.6,30.12,NE,45,0.4,1.3,62,0.00,,,0.00,,2013-02-05 04:24:00,
2013-02-05 05:29:00,40.6,28.6,30.12,South,180,0.0,0.0,62,0.00,,,0.00,,2013-02-05 04:29:00,
2013-02-05 05:34:00,40.6,28.2,30.12,East,90,1.7,1.7,61,0.00,,,0.00,,2013-02-05 04:34:00,
2013-02-05 05:44:00,40.8,28.2,30.12,SE,135,0.4,2.6,61,0.00,,,0.00,,2013-02-05 04:44:00,
2013-02-05 05:49:00,40.8,28.2,30.12,South,180,0.0,0.0,61,0.00,,,0.00,,2013-02-05 04:49:00,
2013-02-05 05:54:00,41.0,28.4,30.12,North,0,0.8,1.3,61,0.00,,,0.00,,2013-02-05 04:54:00,
2013-02-05 05:59:00,41.0,28.4,30.12,East,90,0.0,0.0,61,0.00,,,0.00,,2013-02-05 04:59:00,
2013-02-05 06:04:00,41.2,28.6,30.12,NE,45,0.8,1.7,61,0.00,,,0.00,,2013-02-05 05:04:00,
2013-02-05 06:09:00,41.2,28.2,30.12,East,90,0.8,4.0,60,0.00,,,0.00,,2013-02-05 05:09:00,
2013-02-05 06:14:00,41.4,28.4,30.12,East,90,3.1,3.1,60,0.00,,,0.00,,2013-02-05 05:14:00,
2013-02-05 06:19:00,41.4,28.4,30.09,East,90,0.8,4.4,60,0.00,,,0.00,,2013-02-05 05:19:00,
2013-02-05 06:24:00,41.2,28.2,30.09,North,0,0.4,0.8,60,0.00,,,0.00,,2013-02-05 05:24:00,
2013-02-05 06:29:00,41.4,28.4,30.09,East,90,0.0,0.0,60,0.00,,,0.00,,2013-02-05 05:29:00,
2013-02-05 06:34:00,41.4,28.4,30.09,East,90,0.8,0.0,60,0.00,,,0.00,,2013-02-05 05:34:00,
2013-02-05 06:39:00,41.5,28.6,30.09,East,90,0.4,0.8,60,0.00,,,0.00,,2013-02-05 05:39:00,
2013-02-05 06:44:00,41.5,28.6,30.09,East,90,0.8,0.8,60,0.00,,,0.00,,2013-02-05 05:44:00,
2013-02-05 06:49:00,41.7,28.8,30.09,East,90,1.7,1.7,60,0.00,,,0.00,,2013-02-05 05:49:00,
2013-02-05 06:54:00,41.7,29.1,30.09,SE,135,0.4,1.7,61,0.00,,,0.00,,2013-02-05 05:54:00,
2013-02-05 06:59:00,41.7,29.1,30.09,East,90,0.4,0.0,61,0.00,,,0.00,,2013-02-05 05:59:00,
2013-02-05 07:04:00,41.9,29.3,30.09,East,90,0.4,0.4,61,0.00,,,0.00,,2013-02-05 06:04:00,
2013-02-05 07:09:00,42.1,29.5,30.09,East,90,0.4,0.0,61,0.00,,,0.00,,2013-02-05 06:09:00,
2013-02-05 07:14:00,42.1,29.8,30.09,NE,45,0.8,1.7,62,0.00,,,0.00,,2013-02-05 06:14:00,
2013-02-05 07:19:00,42.3,30.0,30.09,East,90,0.4,1.7,62,0.00,,,0.00,,2013-02-05 06:19:00,
2013-02-05 07:24:00,42.3,30.0,30.09,SE,135,0.0,0.8,62,0.00,,,0.00,,2013-02-05 06:24:00,
2013-02-05 07:29:00,42.4,30.2,30.09,SE,135,0.4,0.4,62,0.00,,,0.00,,2013-02-05 06:29:00,
2013-02-05 07:34:00,42.4,30.2,30.09,NNE,22,0.0,0.0,62,0.00,,,0.00,,2013-02-05 06:34:00,
2013-02-05 07:39:00,42.6,30.4,30.09,NE,45,0.4,0.0,62,0.00,,,0.00,,2013-02-05 06:39:00,
2013-02-05 07:44:00,42.6,30.4,30.09,SE,135,0.0,0.4,62,0.00,,,0.00,,2013-02-05 06:44:00,
2013-02-05 07:49:00,42.8,30.6,30.09,East,90,0.0,0.8,62,0.00,,,0.00,,2013-02-05 06:49:00,
2013-02-05 07:54:00,42.8,30.6,30.09,SE,135,0.0,0.8,62,0.00,,,0.00,,2013-02-05 06:54:00,
2013-02-05 07:59:00,43.0,30.7,30.09,SE,135,1.3,3.5,62,0.00,,,0.00,,2013-02-05 06:59:00,
2013-02-05 08:04:00,43.2,30.9,30.09,SE,135,1.3,2.2,62,0.00,,,0.00,,2013-02-05 07:04:00,
2013-02-05 08:09:00,43.5,31.3,30.09,East,90,0.0,0.0,62,0.00,,,0.00,,2013-02-05 07:09:00,
2013-02-05 08:14:00,43.7,31.5,30.09,NE,45,0.4,1.7,62,0.00,,,0.00,,2013-02-05 07:14:00,
2013-02-05 08:19:00,43.7,31.5,30.09,SSE,157,2.6,3.1,62,0.00,,,0.00,,2013-02-05 07:19:00,
2013-02-05 08:24:00,44.4,32.2,30.09,East,90,2.6,2.6,62,0.00,,,0.00,,2013-02-05 07:24:00,
2013-02-05 08:29:00,44.8,32.5,30.09,SE,135,2.2,2.2,62,0.00,,,0.00,,2013-02-05 07:29:00,
2013-02-05 08:34:00,45.1,32.7,30.09,NE,45,0.0,1.3,62,0.00,,,0.00,,2013-02-05 07:34:00,
2013-02-05 08:39:00,45.7,33.3,30.09,NE,45,0.0,0.0,62,0.00,,,0.00,,2013-02-05 07:39:00,
2013-02-05 08:44:00,45.9,33.4,30.09,East,90,0.4,0.4,62,0.00,,,0.00,,2013-02-05 07:44:00,
2013-02-05 08:49:00,46.4,32.7,30.09,East,90,0.0,0.0,59,0.00,,,0.00,,2013-02-05 07:49:00,
2013-02-05 08:54:00,46.6,32.5,30.09,East,90,0.0,0.0,58,0.00,,,0.00,,2013-02-05 07:54:00,
2013-02-05 08:59:00,46.6,31.6,30.09,East,90,0.8,0.8,56,0.00,,,0.00,,2013-02-05 07:59:00,
2013-02-05 09:04:00,46.8,31.3,30.09,East,90,0.4,1.7,55,0.00,,,0.00,,2013-02-05 08:04:00,
2013-02-05 09:09:00,46.8,31.3,30.09,East,90,1.3,0.0,55,0.00,,,0.00,,2013-02-05 08:09:00,
2013-02-05 09:14:00,46.9,31.5,30.09,East,90,0.0,0.0,55,0.00,,,0.00,,2013-02-05 08:14:00,
2013-02-05 09:19:00,47.1,31.6,30.09,East,90,2.6,0.0,55,0.00,,,0.00,,2013-02-05 08:19:00,
2013-02-05 09:24:00,47.1,31.6,30.09,SE,135,1.7,3.1,55,0.00,,,0.00,,2013-02-05 08:24:00,
2013-02-05 09:29:00,47.5,32.5,30.06,SE,135,2.6,2.6,56,0.00,,,0.00,,2013-02-05 08:29:00,
2013-02-05 09:34:00,47.7,32.5,30.06,SSE,157,1.3,1.3,56,0.00,,,0.00,,2013-02-05 08:34:00,
2013-02-05 09:39:00,48.4,33.3,30.06,SE,135,2.6,2.6,56,0.00,,,0.00,,2013-02-05 08:39:00,
2013-02-05 09:44:00,48.9,34.3,30.06,East,90,3.5,4.4,57,0.00,,,0.00,,2013-02-05 08:44:00,
2013-02-05 09:49:00,49.5,34.7,30.06,East,90,1.7,3.1,57,0.00,,,0.00,,2013-02-05 08:49:00,
2013-02-05 09:54:00,50.9,35.2,30.06,East,90,1.3,2.6,55,0.00,,,0.00,,2013-02-05 08:54:00,
2013-02-05 09:59:00,51.4,35.2,30.06,East,90,0.8,1.3,54,0.00,,,0.00,,2013-02-05 08:59:00,
2013-02-05 10:04:00,51.6,35.4,30.06,East,90,0.4,0.8,54,0.00,,,0.00,,2013-02-05 09:04:00,
2013-02-05 10:09:00,52.3,35.6,30.06,SSE,157,0.0,1.3,53,0.00,,,0.00,,2013-02-05 09:09:00,
2013-02-05 10:14:00,52.3,35.6,30.06,ESE,112,1.3,1.7,53,0.00,,,0.00,,2013-02-05 09:14:00,
2013-02-05 10:19:00,54.1,38.3,30.06,NE,45,1.7,1.7,55,0.00,,,0.00,,2013-02-05 09:19:00,
2013-02-05 10:24:00,54.5,39.6,30.06,SSW,202,3.5,3.5,57,0.00,,,0.00,,2013-02-05 09:24:00,
2013-02-05 10:29:00,54.5,39.0,30.06,NW,315,3.1,5.3,56,0.00,,,0.00,,2013-02-05 09:29:00,
2013-02-05 10:34:00,54.9,39.4,30.06,South,180,1.7,5.3,56,0.00,,,0.00,,2013-02-05 09:34:00,
2013-02-05 10:39:00,54.5,39.0,30.06,SSW,202,5.8,5.8,56,0.00,,,0.00,,2013-02-05 09:39:00,
2013-02-05 10:44:00,54.1,39.2,30.06,South,180,3.1,4.4,57,0.00,,,0.00,,2013-02-05 09:44:00,
2013-02-05 10:49:00,54.3,39.4,30.06,South,180,3.1,4.4,57,0.00,,,0.00,,2013-02-05 09:49:00,
2013-02-05 10:54:00,54.5,39.6,30.06,South,180,2.6,4.4,57,0.00,,,0.00,,2013-02-05 09:54:00,
2013-02-05 10:59:00,54.5,39.6,30.06,NE,45,4.0,5.3,57,0.00,,,0.00,,2013-02-05 09:59:00,
2013-02-05 11:04:00,54.1,39.6,30.06,SW,225,4.9,6.7,58,0.00,,,0.00,,2013-02-05 10:04:00,
2013-02-05 11:09:00,54.1,39.6,30.06,SW,225,3.1,5.3,58,0.00,,,0.00,,2013-02-05 10:09:00,
2013-02-05 11:14:00,54.3,39.7,30.06,SE,135,4.0,7.6,58,0.00,,,0.00,,2013-02-05 10:14:00,
2013-02-05 11:19:00,54.1,39.6,30.06,West,270,4.4,8.5,58,0.00,,,0.00,,2013-02-05 10:19:00,
2013-02-05 11:24:00,54.1,39.6,30.06,South,180,3.1,5.8,58,0.00,,,0.00,,2013-02-05 10:24:00,
2013-02-05 11:29:00,54.0,39.9,30.06,South,180,4.4,8.0,59,0.00,,,0.00,,2013-02-05 10:29:00,
2013-02-05 11:34:00,54.0,39.9,30.06,SSE,157,4.4,8.5,59,0.00,,,0.00,,2013-02-05 10:34:00,
2013-02-05 11:39:00,54.0,39.9,30.06,South,180,4.4,4.4,59,0.00,,,0.00,,2013-02-05 10:39:00,
2013-02-05 11:44:00,53.8,39.7,30.06,South,180,4.0,6.7,59,0.00,,,0.00,,2013-02-05 10:44:00,
2013-02-05 11:54:00,53.8,39.7,30.06,SW,225,3.5,4.9,59,0.00,,,0.00,,2013-02-05 10:54:00,
2013-02-05 11:59:00,53.8,40.1,30.06,West,270,4.0,8.0,60,0.00,,,0.00,,2013-02-05 10:59:00,
2013-02-05 12:04:00,53.8,40.5,30.06,South,180,4.4,7.6,61,0.00,,,0.00,,2013-02-05 11:04:00,
2013-02-05 12:09:00,53.8,40.5,30.03,SW,225,5.3,5.3,61,0.00,,,0.00,,2013-02-05 11:09:00,
2013-02-05 12:14:00,53.8,40.1,30.03,South,180,4.9,4.9,60,0.00,,,0.00,,2013-02-05 11:14:00,
2013-02-05 12:19:00,53.8,40.1,30.03,South,180,4.4,12.0,60,0.00,,,0.00,,2013-02-05 11:19:00,
2013-02-05 12:24:00,53.6,40.5,30.03,West,270,5.3,5.8,61,0.00,,,0.00,,2013-02-05 11:24:00,
2013-02-05 12:29:00,53.8,40.5,30.03,South,180,4.4,8.5,61,0.00,,,0.00,,2013-02-05 11:29:00,
2013-02-05 12:34:00,54.7,41.0,30.03,South,180,4.9,10.2,60,0.00,,,0.00,,2013-02-05 11:34:00,
2013-02-05 12:39:00,54.3,40.6,30.03,West,270,4.9,8.0,60,0.00,,,0.00,,2013-02-05 11:39:00,
2013-02-05 12:49:00,54.5,40.8,30.03,SW,225,4.9,8.0,60,0.00,,,0.00,,2013-02-05 11:49:00,
2013-02-05 12:54:00,54.3,40.6,30.03,SW,225,4.9,7.6,60,0.00,,,0.00,,2013-02-05 11:54:00,
2013-02-05 12:59:00,54.7,41.0,30.00,SW,225,4.9,7.6,60,0.00,,,0.00,,2013-02-05 11:59:00,
2013-02-05 13:09:00,54.9,41.5,30.00,NW,315,4.9,5.8,61,0.00,,,0.00,,2013-02-05 12:09:00,
2013-02-05 13:14:00,55.0,41.4,30.00,South,180,4.9,4.9,60,0.00,,,0.00,,2013-02-05 12:14:00,
2013-02-05 13:19:00,54.7,41.0,30.00,SW,225,4.4,8.9,60,0.00,,,0.00,,2013-02-05 12:19:00,
2013-02-05 13:24:00,54.5,40.8,30.00,SW,225,4.9,6.7,60,0.00,,,0.00,,2013-02-05 12:24:00,
2013-02-05 13:29:00,54.5,40.8,30.00,SSW,202,4.9,11.1,60,0.00,,,0.00,,2013-02-05 12:29:00,
2013-02-05 13:34:00,54.3,41.0,30.00,SW,225,3.5,7.6,61,0.00,,,0.00,,2013-02-05 12:34:00,
2013-02-05 13:39:00,54.1,40.8,30.00,SW,225,4.0,4.9,61,0.00,,,0.00,,2013-02-05 12:39:00,
2013-02-05 13:44:00,54.0,40.6,30.00,SW,225,5.3,5.8,61,0.00,,,0.00,,2013-02-05 12:44:00,
2013-02-05 13:49:00,53.4,41.4,29.97,South,180,4.9,6.7,64,0.00,,,0.00,,2013-02-05 12:49:00,
2013-02-05 13:54:00,53.1,41.9,29.97,South,180,3.5,4.0,66,0.00,,,0.00,,2013-02-05 12:54:00,
2013-02-05 13:59:00,53.1,42.3,29.97,SE,135,4.9,4.9,67,0.00,,,0.00,,2013-02-05 12:59:00,
2013-02-05 14:04:00,53.1,42.3,29.97,South,180,4.4,6.2,67,0.00,,,0.00,,2013-02-05 13:04:00,
2013-02-05 14:09:00,52.3,42.8,29.97,South,180,2.6,6.2,70,0.00,,,0.00,,2013-02-05 13:09:00,
2013-02-05 14:14:00,52.3,43.2,29.97,SW,225,3.1,4.0,71,0.00,,,0.00,,2013-02-05 13:14:00,
2013-02-05 14:19:00,52.3,43.2,29.97,SW,225,4.0,4.0,71,0.00,,,0.00,,2013-02-05 13:19:00,
2013-02-05 14:24:00,52.9,43.0,29.97,South,180,5.8,6.2,69,0.00,,,0.00,,2013-02-05 13:24:00,
2013-02-05 14:29:00,52.2,43.3,29.97,South,180,4.9,5.8,72,0.00,,,0.00,,2013-02-05 13:29:00,
2013-02-05 14:34:00,52.2,43.3,29.97,South,180,4.9,5.8,72,0.00,,,0.00,,2013-02-05 13:34:00,
2013-02-05 14:39:00,52.2,43.3,29.94,South,180,4.9,4.9,72,0.00,,,0.00,,2013-02-05 13:39:00,
2013-02-05 14:44:00,52.2,43.3,29.94,South,180,4.9,4.9,72,0.00,,,0.00,,2013-02-05 13:44:00,
2013-02-05 14:49:00,52.5,43.7,29.94,South,180,3.1,4.9,72,0.00,,,0.00,,2013-02-05 13:49:00,
2013-02-05 14:54:00,53.2,42.8,29.94,South,180,3.1,4.4,68,0.00,,,0.00,,2013-02-05 13:54:00,
2013-02-05 14:59:00,53.6,42.8,29.94,SW,225,2.6,2.6,67,0.00,,,0.00,,2013-02-05 13:59:00,
2013-02-05 15:04:00,53.8,42.3,29.94,WSW,247,4.4,4.4,65,0.00,,,0.00,,2013-02-05 14:04:00,
2013-02-05 15:09:00,53.8,42.3,29.94,West,270,2.2,2.2,65,0.00,,,0.00,,2013-02-05 14:09:00,
2013-02-05 15:14:00,53.8,42.3,29.94,SE,135,4.4,9.8,65,0.00,,,0.00,,2013-02-05 14:14:00,
2013-02-05 15:19:00,53.8,42.3,29.94,South,180,5.3,5.8,65,0.00,,,0.00,,2013-02-05 14:19:00,
2013-02-05 15:24:00,53.8,42.3,29.94,SW,225,3.1,7.6,65,0.00,,,0.00,,2013-02-05 14:24:00,
2013-02-05 15:29:00,53.8,42.3,29.94,SW,225,3.1,4.4,65,0.00,,,0.00,,2013-02-05 14:29:00,
2013-02-05 15:34:00,53.8,42.3,29.94,South,180,5.3,5.8,65,0.00,,,0.00,,2013-02-05 14:34:00,
2013-02-05 15:39:00,53.8,42.6,29.94,South,180,5.8,5.8,66,0.00,,,0.00,,2013-02-05 14:39:00,
2013-02-05 15:44:00,54.0,42.4,29.94,SSW,202,4.0,5.3,65,0.00,,,0.00,,2013-02-05 14:44:00,
2013-02-05 15:49:00,54.1,42.6,29.94,South,180,4.9,6.2,65,0.00,,,0.00,,2013-02-05 14:49:00,
2013-02-05 15:54:00,54.1,42.6,29.94,SW,225,5.3,7.6,65,0.00,,,0.00,,2013-02-05 14:54:00,
2013-02-05 15:59:00,54.1,42.6,29.91,South,180,6.7,12.5,65,0.00,,,0.00,,2013-02-05 14:59:00,
2013-02-05 16:04:00,54.1,42.6,29.91,South,180,5.8,8.5,65,0.00,,,0.00,,2013-02-05 15:04:00,
2013-02-05 16:09:00,54.1,42.6,29.91,SE,135,5.8,6.7,65,0.00,,,0.00,,2013-02-05 15:09:00,
2013-02-05 16:14:00,54.1,43.0,29.91,South,180,4.9,6.7,66,0.00,,,0.00,,2013-02-05 15:14:00,
2013-02-05 16:19:00,54.3,42.6,29.91,South,180,4.4,5.3,65,0.00,,,0.00,,2013-02-05 15:19:00,
2013-02-05 16:24:00,54.1,43.0,29.91,SW,225,4.4,5.3,66,0.00,,,0.00,,2013-02-05 15:24:00,
2013-02-05 16:29:00,54.3,43.2,29.91,North,0,4.9,5.3,66,0.00,,,0.00,,2013-02-05 15:29:00,
2013-02-05 16:34:00,54.3,42.6,29.91,South,180,4.4,8.5,65,0.00,,,0.00,,2013-02-05 15:34:00,
2013-02-05 16:39:00,54.3,42.6,29.91,SW,225,4.4,6.2,65,0.00,,,0.00,,2013-02-05 15:39:00,
2013-02-05 16:44:00,54.3,42.6,29.91,South,180,3.5,5.3,65,0.00,,,0.00,,2013-02-05 15:44:00,
2013-02-05 16:49:00,54.0,42.8,29.91,South,180,3.1,5.3,66,0.00,,,0.00,,2013-02-05 15:49:00,
2013-02-05 16:54:00,54.0,42.8,29.91,South,180,4.4,7.6,66,0.00,,,0.00,,2013-02-05 15:54:00,
2013-02-05 16:59:00,53.8,43.0,29.88,South,180,5.3,9.8,67,0.00,,,0.00,,2013-02-05 15:59:00,
2013-02-05 17:04:00,53.8,43.3,29.88,South,180,3.1,6.7,68,0.00,,,0.00,,2013-02-05 16:04:00,
2013-02-05 17:09:00,54.0,43.2,29.88,West,270,4.0,5.8,67,0.00,,,0.00,,2013-02-05 16:09:00,
2013-02-05 17:14:00,54.0,43.2,29.88,South,180,3.1,5.3,67,0.00,,,0.00,,2013-02-05 16:14:00,
2013-02-05 17:19:00,53.8,43.0,29.88,South,180,4.0,4.0,67,0.00,,,0.00,,2013-02-05 16:19:00,
2013-02-05 17:24:00,53.6,43.5,29.88,South,180,3.1,3.5,69,0.00,,,0.00,,2013-02-05 16:24:00,
2013-02-05 17:29:00,53.4,44.6,29.88,South,180,2.2,5.8,72,0.00,,,0.00,,2013-02-05 16:29:00,
2013-02-05 17:34:00,53.6,44.8,29.88,West,270,2.6,4.4,72,0.00,,,0.00,,2013-02-05 16:34:00,
2013-02-05 17:39:00,53.6,44.8,29.88,South,180,2.2,8.0,72,0.00,,,0.00,,2013-02-05 16:39:00,
2013-02-05 17:44:00,53.4,44.6,29.88,South,180,2.6,4.0,72,0.00,,,0.00,,2013-02-05 16:44:00,
2013-02-05 17:49:00,53.4,44.6,29.88,East,90,2.2,2.2,72,0.00,,,0.00,,2013-02-05 16:49:00,
2013-02-05 17:54:00,53.2,44.8,29.88,South,180,2.2,6.2,73,0.00,,,0.00,,2013-02-05 16:54:00,
2013-02-05 17:59:00,53.2,44.8,29.88,South,180,3.5,4.4,73,0.00,,,0.00,,2013-02-05 16:59:00,
2013-02-05 18:04:00,52.9,44.4,29.88,North,0,3.5,8.0,73,0.00,,,0.00,,2013-02-05 17:04:00,
2013-02-05 18:09:00,52.9,44.8,29.88,South,180,4.9,4.9,74,0.00,,,0.00,,2013-02-05 17:09:00,
2013-02-05 18:14:00,52.5,44.4,29.88,South,180,2.6,3.1,74,0.00,,,0.00,,2013-02-05 17:14:00,
2013-02-05 18:19:00,52.3,44.6,29.88,West,270,2.2,4.9,75,0.00,,,0.00,,2013-02-05 17:19:00,
2013-02-05 18:24:00,52.3,44.6,29.88,South,180,1.7,4.4,75,0.00,,,0.00,,2013-02-05 17:24:00,
2013-02-05 18:29:00,52.3,45.0,29.88,SSW,202,3.1,3.1,76,0.00,,,0.00,,2013-02-05 17:29:00,
2013-02-05 18:34:00,52.5,45.1,29.88,South,180,2.6,2.6,76,0.00,,,0.00,,2013-02-05 17:34:00,
2013-02-05 18:39:00,52.2,44.8,29.88,South,180,1.3,1.3,76,0.00,,,0.00,,2013-02-05 17:39:00,
2013-02-05 18:44:00,51.8,44.8,29.88,South,180,0.8,1.3,77,0.00,,,0.00,,2013-02-05 17:44:00,
2013-02-05 18:49:00,52.2,45.1,29.88,South,180,0.8,0.8,77,0.00,,,0.00,,2013-02-05 17:49:00,
2013-02-05 18:54:00,52.2,45.1,29.88,East,90,0.4,2.6,77,0.00,,,0.00,,2013-02-05 17:54:00,
2013-02-05 18:59:00,52.2,45.1,29.88,South,180,1.7,1.7,77,0.00,,,0.00,,2013-02-05 17:59:00,
2013-02-05 19:04:00,52.5,45.5,29.88,SE,135,0.8,1.3,77,0.00,,,0.00,,2013-02-05 18:04:00,
2013-02-05 19:09:00,52.5,45.1,29.88,East,90,0.0,1.7,76,0.00,,,0.00,,2013-02-05 18:09:00,
2013-02-05 19:14:00,52.0,43.5,29.88,East,90,1.3,1.3,73,0.00,,,0.00,,2013-02-05 18:14:00,
2013-02-05 19:19:00,51.8,43.3,29.88,NE,45,0.0,0.0,73,0.00,,,0.00,,2013-02-05 18:19:00,
2013-02-05 19:25:00,51.8,43.0,29.88,East,90,1.3,1.7,72,0.00,,,0.00,,2013-02-05 18:25:00,
2013-02-05 19:34:00,51.4,42.3,29.88,East,90,1.7,1.7,71,0.00,,,0.00,,2013-02-05 18:34:00,
2013-02-05 19:39:00,50.5,41.7,29.88,South,180,0.8,2.2,72,0.00,,,0.00,,2013-02-05 18:39:00,
2013-02-05 19:44:00,50.4,41.9,29.88,SSE,157,0.4,2.6,73,0.00,,,0.00,,2013-02-05 18:44:00,
2013-02-05 19:49:00,50.2,42.1,29.88,South,180,1.7,3.5,74,0.00,,,0.00,,2013-02-05 18:49:00,
2013-02-05 19:54:00,50.4,42.6,29.88,South,180,1.7,1.7,75,0.00,,,0.00,,2013-02-05 18:54:00,
2013-02-05 19:59:00,50.4,42.6,29.88,South,180,1.7,2.6,75,0.00,,,0.00,,2013-02-05 18:59:00,
2013-02-05 20:04:00,50.5,43.2,29.88,South,180,1.3,1.7,76,0.00,,,0.00,,2013-02-05 19:04:00,
2013-02-05 20:09:00,50.4,43.0,29.88,South,180,1.7,2.2,76,0.00,,,0.00,,2013-02-05 19:09:00,
2013-02-05 20:14:00,50.4,43.0,29.88,South,180,0.8,1.7,76,0.00,,,0.00,,2013-02-05 19:14:00,
2013-02-05 20:19:00,50.4,43.3,29.88,South,180,1.3,3.1,77,0.00,,,0.00,,2013-02-05 19:19:00,
2013-02-05 20:25:00,50.2,43.5,29.85,South,180,1.3,2.6,78,0.00,,,0.00,,2013-02-05 19:25:00,
2013-02-05 20:30:00,50.5,44.2,29.85,SW,225,1.7,3.1,79,0.00,,,0.00,,2013-02-05 19:30:00,
2013-02-05 20:35:00,50.7,44.6,29.85,South,180,1.7,2.6,80,0.00,,,0.00,,2013-02-05 19:35:00,
2013-02-05 20:39:00,50.7,45.0,29.85,NNW,337,0.8,5.3,81,0.00,,,0.00,,2013-02-05 19:39:00,
2013-02-05 20:45:00,50.7,45.0,29.85,West,270,0.8,2.2,81,0.00,,,0.00,,2013-02-05 19:45:00,
2013-02-05 20:50:00,50.9,45.5,29.85,South,180,2.2,2.6,82,0.00,,,0.00,,2013-02-05 19:50:00,
2013-02-05 20:55:00,51.1,45.7,29.85,South,180,1.7,2.6,82,0.00,,,0.00,,2013-02-05 19:55:00,
2013-02-05 21:00:00,50.9,45.1,29.85,WNW,292,2.2,2.2,81,0.00,,,0.00,,2013-02-05 20:00:00,
2013-02-05 21:05:00,50.7,45.0,29.85,West,270,1.3,2.6,81,0.00,,,0.00,,2013-02-05 20:05:00,
2013-02-05 21:15:00,50.4,44.6,29.85,West,270,1.3,1.3,81,0.00,,,0.00,,2013-02-05 20:15:00,
2013-02-05 21:20:00,50.2,44.8,29.85,South,180,0.4,0.0,82,0.00,,,0.00,,2013-02-05 20:20:00,
2013-02-05 21:25:00,50.4,45.0,29.85,West,270,0.8,1.7,82,0.00,,,0.00,,2013-02-05 20:25:00,
2013-02-05 21:30:00,50.2,44.8,29.85,South,180,0.0,0.0,82,0.00,,,0.00,,2013-02-05 20:30:00,
2013-02-05 21:35:00,50.2,44.8,29.85,South,180,0.4,0.8,82,0.00,,,0.00,,2013-02-05 20:35:00,
2013-02-05 21:40:00,50.4,45.0,29.85,South,180,1.3,1.3,82,0.00,,,0.00,,2013-02-05 20:40:00,
2013-02-05 21:45:00,51.1,45.7,29.85,South,180,1.3,1.7,82,0.00,,,0.00,,2013-02-05 20:45:00,
2013-02-05 21:49:00,51.1,45.3,29.85,West,270,1.3,0.0,81,0.00,,,0.00,,2013-02-05 20:49:00,
2013-02-05 21:54:00,50.9,45.1,29.85,South,180,0.4,1.7,81,0.00,,,0.00,,2013-02-05 20:54:00,
2013-02-05 21:59:00,51.1,45.0,29.85,South,180,0.0,1.3,80,0.00,,,0.00,,2013-02-05 20:59:00,
2013-02-05 22:04:00,51.1,45.0,29.85,SSW,202,0.8,0.0,80,0.00,,,0.00,,2013-02-05 21:04:00,
2013-02-05 22:09:00,50.9,44.6,29.85,South,180,1.7,1.7,79,0.00,,,0.00,,2013-02-05 21:09:00,
2013-02-05 22:14:00,50.7,44.1,29.85,South,180,1.7,2.2,78,0.00,,,0.00,,2013-02-05 21:14:00,
2013-02-05 22:19:00,50.5,43.9,29.85,South,180,0.8,1.3,78,0.00,,,0.00,,2013-02-05 21:19:00,
2013-02-05 22:24:00,50.2,43.9,29.85,South,180,0.4,2.2,79,0.00,,,0.00,,2013-02-05 21:24:00,
2013-02-05 22:30:00,50.0,44.1,29.82,South,180,0.4,1.3,80,0.00,,,0.00,,2013-02-05 21:30:00,
2013-02-05 22:35:00,49.8,44.1,29.82,South,180,0.4,0.4,81,0.00,,,0.00,,2013-02-05 21:35:00,
2013-02-05 22:40:00,49.5,43.7,29.82,South,180,0.0,0.0,81,0.00,,,0.00,,2013-02-05 21:40:00,
2013-02-05 22:45:00,49.5,44.1,29.82,South,180,0.0,0.0,82,0.00,,,0.00,,2013-02-05 21:45:00,
2013-02-05 22:50:00,49.3,43.9,29.82,South,180,0.0,0.0,82,0.00,,,0.00,,2013-02-05 21:50:00,
2013-02-05 22:55:00,49.1,44.1,29.82,South,180,0.4,0.0,83,0.00,,,0.00,,2013-02-05 21:55:00,
2013-02-05 23:00:00,48.9,43.9,29.82,South,180,0.0,0.0,83,0.00,,,0.00,,2013-02-05 22:00:00,
2013-02-05 23:05:00,48.9,43.9,29.82,South,180,0.4,0.0,83,0.00,,,0.00,,2013-02-05 22:05:00,
2013-02-05 23:10:00,48.9,43.9,29.82,South,180,0.8,0.8,83,0.00,,,0.00,,2013-02-05 22:10:00,
2013-02-05 23:15:00,48.6,43.5,29.82,South,180,0.8,1.7,83,0.00,,,0.00,,2013-02-05 22:15:00,
2013-02-05 23:20:00,48.2,42.8,29.82,South,180,1.7,2.6,82,0.00,,,0.00,,2013-02-05 22:20:00,
2013-02-05 23:25:00,48.0,42.4,29.82,East,90,1.7,3.1,81,0.00,,,0.00,,2013-02-05 22:25:00,
2013-02-05 23:30:00,48.0,42.4,29.82,East,90,0.8,2.6,81,0.00,,,0.00,,2013-02-05 22:30:00,
2013-02-05 23:35:00,48.2,42.6,29.82,South,180,0.8,2.6,81,0.00,,,0.00,,2013-02-05 22:35:00,
2013-02-05 23:40:00,48.2,42.6,29.82,SE,135,0.0,0.4,81,0.00,,,0.00,,2013-02-05 22:40:00,
2013-02-05 23:45:00,47.7,42.1,29.82,South,180,0.0,0.0,81,0.00,,,0.00,,2013-02-05 22:45:00,
2013-02-05 23:50:00,47.3,41.7,29.82,South,180,0.8,0.0,81,0.00,,,0.00,,2013-02-05 22:50:00,
2013-02-05 23:55:00,47.1,41.5,29.82,East,90,0.4,2.2,81,0.00,,,0.00,,2013-02-05 22:55:00,